Starlink 31390

operational
NORAD ID: 58937 Int'l Des: 2024-027 Owner: SPXS Country: US Constellation: starlink
LEOCIRCULAR

Starlink 31390について

説明を読み込み中...

リアルタイム位置

3D地球を読み込み中...

次回通過

高度履歴

Altitude vs Time

uPlot chart will show altitude changes over time

軌道要素

1 58937U 24027G 25307.36272705 .00001521 00000-0 63525-4 0 9990
2 58937 53.1593 176.6422 0001975 87.1626 272.9600 15.30180296 97984
Epoch: Nov 3, 2025 • Age: 26 hours

現在のステータス

高度 485.3 km
速度 7.62 km/s
衛星直下点 -30.16°S, 172.26°E
打ち上げ日 Feb 10, 2024
運用期間 1.7 years
タイプ internet

技術仕様

分類 Payload
質量 730.00 kg
乾燥質量 700.00 kg
総質量 730.00 kg
長さ 0.30 m
直径 4.10 m
スパン 29.00 m
形状 Box + pan
製造者 SPXS
バスタイプ Starlink V2M
フェーズステータス In Orbit
所有者/国 SPXS/US

大規模コンステレーション

Loading constellations...